Tracking 26931 objects as of 6-Feb-2023
HD Live streaming from Space Station
objects crossing your sky now

ARIANE 5 R/B

Track ARIANE 5 R/B now!
10-day predictions


NORAD ID: 29498
Int'l Code: 2006-043E
Perigee: 225.1 km
Apogee: 24,041.6 km
Inclination: 7.2 °
Period: 417.5 minutes
Semi major axis: 18504 km
RCS: 22.7915 m2 (large)
Launch date: October 13, 2006
Source: France (FR)
Launch site: FRENCH GUIANA (FRGUI)

Note: This is a ROCKET BODY
Your satellite tracking list
Your tracking list is empty




NASA's NSSDC Master Catalog

Two Line Element Set (TLE):
1 29498U 06043E   23036.56310050  .00019082  00000-0  13564-2 0  9990
2 29498   7.1771  74.6146 6435384 263.4953  24.8112  3.44899205171854
Source of the keplerian elements: AFSPC